Regional Weather Roundup
Issued by NWS

Home | Current Version | Previous Version | Graphics & Text | Print | Product List | Glossary On
Versions: 1 2 3 4 5 6 7 8 9 10 11 12 13 14 15 16 17 18 19 20 21 22 23 24 25 26 27 28 29 30 31 32 33 34 35 36 37 38 39 40 41 42 43 44 45 46 47 48 49 50
000
ASUS43 KTOP 282059
RWRKS

WEATHER ROUNDUP FOR KANSAS
NATIONAL WEATHER SERVICE GOODLAND KS
400 PM CDT SAT MAY 28 2016

NOTE:  "FAIR" INDICATES FEW OR NO CLOUDS BELOW 12,000 FEET WITH NO
SIGNIFICANT WEATHER AND/OR OBSTRUCTIONS TO VISIBILITY.

KSZ001>006-013>018-027>032-041>047-282200-
NORTHWEST KANSAS

CITY           SKY/WX    TMP DP  RH WIND       PRES   REMARKS
GOODLAND       MOSUNNY   75  46  35 SW8       29.99S
HAYS           SUNNY     75  52  43 NW8G16    29.95S
HILL CITY      MOSUNNY   78  50  37 W9        29.94F
RUSSELL        MOSUNNY   74  56  53 NW8       29.93S
$$

KSZ061>065-074>080-084>089-282200-
SOUTHWEST KANSAS

CITY           SKY/WX    TMP DP  RH WIND       PRES   REMARKS
DODGE CITY     SUNNY     77  49  37 NW7       29.98S
ELKHART          N/A     79  46  31 SW7         N/A
GARDEN CITY    SUNNY     79  42  26 NW13      29.98S
GREAT BEND     MOSUNNY   75  55  50 W7        29.95S
LIBERAL        MOSUNNY   81  46  30 SW9       30.00S
$$

KSZ066>073-081>083-090>101-282200-
SOUTHEAST KANSAS

CITY           SKY/WX    TMP DP  RH WIND       PRES   REMARKS
CHANUTE        PTSUNNY   78  60  53 SW12      29.93S
COFFEYVILLE    MOSUNNY   81  61  50 SW8       29.93S
HUTCHINSON     MOSUNNY   79  57  46 NW6       29.94R
MEDICINE LODGE   N/A     83  47  28 W7        29.94R
NEWTON         MOSUNNY   75  55  50 NW9       29.97R
PARSONS        MOSUNNY   80  61  52 SW7       29.95S
WICHITA INTL   MOSUNNY   81  56  42 W8        29.93S
WICHITA JABRA  MOSUNNY   78  58  49 SW8       29.94R
WINFIELD       SUNNY     80  58  46 W6        29.95S
$$

KSZ007>012-019>026-033>040-048>060-102>105-282200-
NORTHEAST KANSAS

CITY           SKY/WX    TMP DP  RH WIND       PRES   REMARKS
CONCORDIA      MOSUNNY   75  56  51 W13G21    29.91R
EMPORIA        PTSUNNY   76  59  55 W8        29.93S
LAWRENCE       PTSUNNY   76  59  55 W9        29.91R
MANHATTAN      PTSUNNY   77  58  51 W12G17    29.90S
OLATHE IND     PTSUNNY   76  58  53 SW14      29.92S
OLATHE EXE     MOSUNNY   74  57  55 SW12      29.92R
SALINA         MOSUNNY   78  56  46 W8        29.93R
TOPEKA BILLARD SUNNY     77  59  53 W10       29.90S
TOPEKA FORBES  MOSUNNY   77  59  53 W13       29.91S
$$




USA.gov is the U.S. government's official web portal to all federal, state and local government web resources and services.